Gustavus, AK

6:45 AM AKST on January 17, 2017 (GMT -0900)
Gustavus

Weather History for PAGS - February, 2013

Change the Weather History Date:

Monday, February 11, 2013

  Actual Average Record
Temperature  
Mean Temperature 37 °F -  
Max Temperature 41 °F 36 °F 48 °F (2006)
Min Temperature 33 °F 18 °F -9 °F (1951)
Degree Days  
Heating Degree Days 28    
Moisture  
Dew Point 32 °F    
Average Humidity 80    
Maximum Humidity 87    
Minimum Humidity 70    
Precipitation  
Precipitation 0.00 in - - ()
Sea Level Pressure  
Sea Level Pressure 29.83 in    
Wind  
Wind Speed 11 mph (SSE)    
Max Wind Speed 23 mph    
Max Gust Speed 30 mph    
Visibility 10 miles    
Events      
Averages and records for this station are not official NWS values.
T = Trace of Precipitation, MM = Missing Value Source: NWS Daily Summary

Daily Weather History Graph

Daily Weather History Graph

Search for Another Location

Airport or City:

Trip Planner

Search our weather history database for the weather conditions in past years. The results will help you decide how hot, cold, wet, or windy it might be!

Date:

Astronomy

Feb. 11, 2013 Rise Set
Actual Time 7:44 AM AKST 4:50 PM AKST
Civil Twilight 7:01 AM AKST 5:33 PM AKST
Nautical Twilight 6:15 AM AKST 6:20 PM AKST
Astronomical Twilight 5:29 AM AKST 7:06 PM AKST
Moon 7:38 AM AKST (2/11) 7:37 PM AKST (2/11)
Length of Visible Light 10h 31m
Length of Day
9h 06m
Waxing Crescent, 3% of the Moon is Illuminated
Feb 11
Waxing Crescent
Feb 17
First Quarter
Feb 25
Full
Mar 4
Last Quarter
Mar 11
New

Hourly Weather History & Observations

Time (AKST) Temp. Windchill Dew Point Humidity Pressure Visibility Wind Dir Wind Speed Gust Speed Precip Events Conditions
12:16 AM 37.4 °F 27.8 °F 32.0 °F 81% 29.84 in 10.0 mi SE 17.3 mph 24.2 mph N/A   Overcast
12:36 AM 37.4 °F 28.2 °F 32.0 °F 81% 29.84 in 10.0 mi SE 16.1 mph 23.0 mph N/A   Overcast
12:56 AM 37.4 °F 28.2 °F 32.0 °F 81% 29.83 in 10.0 mi SE 16.1 mph 21.9 mph N/A   Overcast
1:16 AM 37.4 °F 28.2 °F 32.0 °F 81% 29.82 in 10.0 mi SE 16.1 mph - N/A   Overcast
1:36 AM 39.2 °F 30.5 °F 32.0 °F 75% 29.81 in 10.0 mi SE 16.1 mph 25.3 mph N/A   Overcast
1:56 AM 39.2 °F 29.6 °F 32.0 °F 75% 29.80 in 10.0 mi SE 19.6 mph 24.2 mph N/A   Overcast
2:16 AM 39.2 °F 29.0 °F 32.0 °F 75% 29.79 in 10.0 mi SE 21.9 mph 29.9 mph N/A   Overcast
2:36 AM 39.2 °F 29.8 °F 32.0 °F 75% 29.79 in 10.0 mi SE 18.4 mph 26.5 mph N/A   Overcast
2:56 AM 39.2 °F 28.7 °F 32.0 °F 75% 29.79 in 10.0 mi SE 23.0 mph 28.8 mph N/A   Overcast
3:16 AM 39.2 °F 28.7 °F 32.0 °F 75% 29.78 in 10.0 mi SE 23.0 mph 28.8 mph N/A   Overcast
3:36 AM 39.2 °F 29.3 °F 32.0 °F 75% 29.78 in 10.0 mi SE 20.7 mph 26.5 mph N/A   Overcast
3:56 AM 39.2 °F 29.3 °F 32.0 °F 75% 29.78 in 10.0 mi SE 20.7 mph 25.3 mph N/A   Overcast
4:16 AM 39.2 °F 29.3 °F 32.0 °F 75% 29.78 in 10.0 mi SE 20.7 mph 28.8 mph N/A   Overcast
4:36 AM 39.2 °F 32.0 °F 32.0 °F 75% 29.79 in 10.0 mi SSE 11.5 mph - N/A   Overcast
4:56 AM 39.2 °F 31.6 °F 32.0 °F 75% 29.80 in 10.0 mi SSE 12.7 mph 21.9 mph N/A   Overcast
5:16 AM 37.4 °F 28.5 °F 33.8 °F 87% 29.80 in 10.0 mi SE 15.0 mph 18.4 mph N/A   Overcast
5:36 AM 37.4 °F 28.9 °F 33.8 °F 87% 29.80 in 10.0 mi ESE 13.8 mph - N/A   Mostly Cloudy
5:56 AM 39.2 °F 30.5 °F 33.8 °F 81% 29.79 in 10.0 mi SE 16.1 mph 20.7 mph N/A   Overcast
6:16 AM 39.2 °F 31.6 °F 33.8 °F 81% 29.80 in 10.0 mi SE 12.7 mph - N/A   Overcast
6:36 AM 39.2 °F 31.6 °F 33.8 °F 81% 29.80 in 10.0 mi SSE 12.7 mph 20.7 mph N/A   Overcast
6:56 AM 39.2 °F 31.6 °F 33.8 °F 81% 29.80 in 10.0 mi SE 12.7 mph 20.7 mph N/A   Overcast
7:16 AM 39.2 °F 31.2 °F 32.0 °F 75% 29.81 in 10.0 mi SE 13.8 mph - N/A   Overcast
7:36 AM 39.2 °F 32.0 °F 33.8 °F 81% 29.81 in 10.0 mi SE 11.5 mph - N/A   Overcast
7:56 AM 39.2 °F 32.5 °F 33.8 °F 81% 29.81 in 9.0 mi SSE 10.4 mph - N/A   Overcast
8:16 AM 39.2 °F 33.6 °F 33.8 °F 81% 29.81 in 10.0 mi SSE 8.1 mph 16.1 mph N/A   Overcast
8:36 AM 39.2 °F 33.0 °F 33.8 °F 81% 29.82 in 10.0 mi SE 9.2 mph - N/A   Overcast
8:56 AM 39.2 °F 35.0 °F 33.8 °F 81% 29.82 in 10.0 mi SSE 5.8 mph - N/A   Overcast
9:16 AM 39.2 °F 33.0 °F 33.8 °F 81% 29.84 in 10.0 mi SSW 9.2 mph - N/A   Overcast
9:36 AM 37.4 °F 33.8 °F 33.8 °F 87% 29.84 in 10.0 mi South 4.6 mph - N/A   Overcast
9:56 AM 37.4 °F - 33.8 °F 87% 29.85 in 10.0 mi Calm Calm - N/A   Overcast
10:16 AM 39.2 °F - 33.8 °F 81% 29.86 in 10.0 mi Calm Calm - N/A   Overcast
10:36 AM 39.2 °F 35.0 °F 33.8 °F 81% 29.86 in 10.0 mi SSE 5.8 mph - N/A   Overcast
10:56 AM 39.2 °F 34.2 °F 33.8 °F 81% 29.86 in 9.0 mi South 6.9 mph - N/A   Overcast
11:16 AM 39.2 °F 35.0 °F 33.8 °F 81% 29.87 in 10.0 mi SSW 5.8 mph - N/A   Overcast
11:36 AM 39.2 °F 33.6 °F 33.8 °F 81% 29.87 in 10.0 mi SW 8.1 mph - N/A   Overcast
11:56 AM 39.2 °F 33.0 °F 32.0 °F 75% 29.86 in 10.0 mi SSW 9.2 mph - N/A   Scattered Clouds
12:16 PM 39.2 °F 33.6 °F 33.8 °F 81% 29.87 in 10.0 mi SE 8.1 mph - N/A   Clear
12:36 PM 39.2 °F 34.2 °F 33.8 °F 81% 29.88 in 10.0 mi SSW 6.9 mph - N/A   Mostly Cloudy
12:56 PM 37.4 °F 32.8 °F 32.0 °F 81% 29.88 in 10.0 mi SW 5.8 mph - N/A   Overcast
1:56 PM 39.2 °F - 33.8 °F 81% 29.88 in 10.0 mi Calm Calm - N/A   Mostly Cloudy
2:16 PM 39.2 °F - 33.8 °F 81% 29.88 in 10.0 mi Calm Calm - N/A   Mostly Cloudy
2:36 PM 41.0 °F - 32.0 °F 70% 29.88 in 10.0 mi Calm Calm - N/A   Overcast
2:56 PM 39.2 °F - 30.2 °F 70% 29.88 in 10.0 mi Calm Calm - N/A   Overcast
3:16 PM 39.2 °F - 32.0 °F 75% 29.87 in 10.0 mi Calm Calm - N/A   Overcast
3:36 PM 39.2 °F 35.0 °F 32.0 °F 75% 29.87 in 10.0 mi SSE 5.8 mph - N/A   Overcast
3:56 PM 39.2 °F 35.0 °F 32.0 °F 75% 29.88 in 10.0 mi West 5.8 mph - N/A   Overcast
4:16 PM 37.4 °F - 32.0 °F 81% 29.87 in 8.0 mi Calm Calm - N/A   Mostly Cloudy
4:36 PM 37.4 °F 34.9 °F 30.2 °F 75% 29.86 in 10.0 mi SSE 3.5 mph - N/A   Scattered Clouds
4:56 PM 35.6 °F 31.7 °F 30.2 °F 81% 29.86 in 10.0 mi SSE 4.6 mph - N/A   Mostly Cloudy
5:16 PM 37.4 °F - 30.2 °F 75% 29.86 in 10.0 mi Calm Calm - N/A   Overcast
5:36 PM 37.4 °F - 30.2 °F 75% 29.86 in 10.0 mi Calm Calm - N/A   Overcast
5:56 PM 35.6 °F - 30.2 °F 81% 29.86 in 8.0 mi Calm Calm - N/A   Overcast
6:16 PM 37.4 °F - 30.2 °F 75% 29.85 in 10.0 mi Calm Calm - N/A   Mostly Cloudy
6:36 PM 35.6 °F 32.8 °F 30.2 °F 81% 29.84 in 10.0 mi East 3.5 mph - N/A   Scattered Clouds
6:56 PM 33.8 °F 29.6 °F 30.2 °F 87% 29.84 in 10.0 mi ENE 4.6 mph - N/A   Mostly Cloudy
7:16 PM 33.8 °F - 30.2 °F 87% 29.84 in 10.0 mi Calm Calm - N/A   Overcast
7:36 PM 33.8 °F - 30.2 °F 87% 29.84 in 10.0 mi Calm Calm - N/A   Overcast
7:56 PM 33.8 °F 30.8 °F 30.2 °F 87% 29.84 in 10.0 mi WSW 3.5 mph - N/A   Overcast
8:16 PM 35.6 °F 32.8 °F 30.2 °F 81% 29.84 in 10.0 mi SW 3.5 mph - N/A   Overcast
8:36 PM 35.6 °F - 30.2 °F 81% 29.83 in 10.0 mi Calm Calm - N/A   Mostly Cloudy
8:56 PM 35.6 °F 29.9 °F 30.2 °F 81% 29.83 in 10.0 mi NE 6.9 mph - N/A   Overcast
9:16 PM 33.8 °F - 30.2 °F 87% 29.82 in 10.0 mi Calm Calm - N/A   Overcast
9:36 PM 35.6 °F - 30.2 °F 81% 29.82 in 10.0 mi Calm Calm - N/A   Overcast
9:56 PM 33.8 °F - 30.2 °F 87% 29.81 in 10.0 mi Calm Calm - N/A   Overcast
10:16 PM 33.8 °F - 28.4 °F 81% 29.80 in 10.0 mi Calm Calm - N/A   Overcast
10:36 PM 33.8 °F - 28.4 °F 81% 29.80 in 10.0 mi Calm Calm - N/A   Overcast
10:56 PM 33.8 °F - 30.2 °F 87% 29.79 in 10.0 mi Calm Calm - N/A   Overcast
11:16 PM 33.8 °F - 28.4 °F 81% 29.79 in 10.0 mi Calm Calm - N/A   Overcast
11:36 PM 33.8 °F - 28.4 °F 81% 29.78 in 10.0 mi Calm Calm - N/A   Overcast
11:56 PM 33.8 °F - 28.4 °F 81% 29.78 in 10.0 mi Calm Calm - N/A   Overcast